Flag for Gambia Weather past 2 weeks in Serekunda, Gambia

Now
70 °F

Clear.


Feels Like: 70 °F
Forecast: 69 / 83 °F
Wind: 6 mph from West

Location: Banjul / Yundum


UV Index: 10 (Very high)

Visibility: 10 mi


Pressure: 29.83 "Hg

Humidity: 88%

Dew point: 66 °F

Location of SerekundaLocation

Historic Weather in Serekunda

°F

Serekunda temperature yesterday

Maximum temperature yesterday: 99 °F (at 3:00 PM)
Minimum temperature yesterday: 64 °F (at 7:00 AM)
Average temperature yesterday: 79 °F

Past Weeks' High & Low Weather Summary

 TemperatureHumidityPressure
High104 °F (Apr 5, 2:00 PM)100% (Apr 12, 5:00 AM)29.92 "Hg (Apr 12, 5:00 AM)
Low63 °F (Apr 7, 5:00 AM)13% (Apr 5, 3:00 PM)29.71 "Hg (Apr 16, 4:00 PM)
Average75 °F64%29.84 "Hg
* Reported Midnight between Apr 1 and Apr 2 — Midnight between Apr 16 and Apr 17, Serekunda, Weather by CustomWeather, © 2014

Note: Actual official high and low records may vary slightly from our data, if they occured in-between our weather recording intervals... More about our weather records

Advertising

Historic Weather Conditions — Data for Previous 24 hours

 ConditionsComfort  
Time TempWeatherWind HumidityBarometerVisibility
12:00 AM
Apr 17
70 °FClear.7 mph88%29.86 "Hg10 mi
11:00 PM
Apr 16
72 °FClear.6 mph83%29.83 "Hg10 mi
10:00 PM72 °FClear.6 mph78%29.83 "Hg10 mi
9:00 PM73 °FClear.6 mph78%29.80 "Hg10 mi
8:00 PM77 °FClear.8 mph57%29.77 "Hg10 mi
7:00 PM84 °FSunny.8 mph45%29.74 "Hg10 mi
6:00 PM90 °FSunny.8 mph38%29.74 "Hg10 mi
5:00 PM95 °FSunny.9 mph32%29.71 "Hg10 mi
4:00 PM95 °FSunny.12 mph32%29.71 "Hg10 mi
3:00 PM99 °FSunny.9 mph24%29.74 "Hg10 mi
2:00 PM97 °FSunny.9 mph25%29.77 "Hg10 mi
1:00 PM93 °FSunny.8 mph30%29.80 "Hg10 mi
12:00 PM91 °FSunny.7 mph34%29.80 "Hg10 mi
11:00 AM88 °FSunny.5 mph33%29.83 "Hg10 mi
10:00 AM82 °FSunny.5 mph42%29.83 "Hg10 mi
9:00 AM73 °FSunny.1 mph74%29.83 "Hg10 mi
8:00 AM68 °FSunny.5 mph88%29.80 "Hg10 mi
7:00 AM64 °FSunny.3 mph94%29.80 "Hg10 mi
6:00 AM66 °FClear.2 mph88%29.80 "Hg10 mi
5:00 AM68 °FClear.3 mph83%29.80 "Hg10 mi
4:00 AM66 °FClear.3 mph88%29.80 "Hg10 mi
3:00 AM68 °FClear.2 mph83%29.80 "Hg10 mi
2:00 AM68 °FClear.3 mph83%29.83 "Hg10 mi
1:00 AM73 °FClear.5 mph69%29.83 "Hg10 mi
Weather by CustomWeather, © 2014

See weather overview